Overview Statistics Trail Chart Weather Telemetry Raw packets
 

This is the latest recevied weather packets stored in our database for station/object HP1MRA-15. If no packets are shown the sender has not sent any weather packets the latest 10 day(s).

<< 43 44 45 46 47 48 49 >>
Time Temp. Humidity Pressure Rain* Wind** Luminosity Snow
1788380721 33.33° C 59% 1001 hPa 0 mm - - -
1788380421 33.89° C 59% 1001 hPa 0 mm - - -
1788380121 33.89° C 59% 1001.1 hPa 0 mm - - -
1788379820 33.89° C 59% 1001.2 hPa 0 mm - - -
1788379519 33.89° C 59% 1001.1 hPa 0 mm - - -
1788379076 33.89° C 59% 1001 hPa 0 mm - - -
1788378776 34.44° C 58% 1001.2 hPa 0 mm - - -
1788378476 34.44° C 58% 1001.4 hPa 0 mm - - -
1788378177 35° C 58% 1001.5 hPa 0 mm - - -
1788377880 35.56° C 58% 1001.5 hPa 0 mm - - -
1788377877 35.56° C 58% 1001.5 hPa 0 mm - - -
1788377576 35.56° C 57% 1001.5 hPa 0 mm - - -
1788377276 36.11° C 57% 1001.7 hPa 0 mm - - -
1788376845 36.67° C 56% 1002 hPa 0 mm - - -
1788375628 37.78° C 58% 1002 hPa 0 mm - - -
1788375198 38.33° C 58% 1001.8 hPa 0 mm - - -
1788374897 37.78° C 59% 1001.8 hPa 0 mm - - -
1788373103 37.78° C 56% 1002.3 hPa 0 mm - - -
1788372803 38.33° C 55% 1002.6 hPa 0 mm - - -
1788372500 38.89° C 60% 1002.7 hPa 0 mm - - -
1788371488 37.22° C 58% 1003 hPa 0 mm - - -
1788371230 37.78° C 59% 1003.2 hPa 0 mm - - -
1788371188 37.78° C 58% 1003.2 hPa 0 mm - - -
1788370888 37.22° C 61% 1003.3 hPa 0 mm - - -
1788370587 36.67° C 60% 1003.3 hPa 0 mm - - -

* Rain latest hour (hover to see other rain measurements)
** Current wind speed in m/s (hover to see current wind gust speed)